EHI
0 0 0 0 0 0 0 0 0 0 0 0 0 0 0 0 0 0 0 0 0 0 0 0 0 0 0 0 0 0 0 0 0 0 0 0 0 0
0 0 0 0 0 0 0 0 0 0 0 0 0 0 0 0 0 0 0 0 0 0 0 0 0 0 0 0 0 0 0 0 0 0 0 0 0 0
0 0 0 0 0 0 0 0 0 0 0 0 0 0 0 0 0 0 0 0 0 0 0 0 0 0 0 0 0 0 0 0 0 0 0 0 0 0
0 0 0 0 0 0 0 0 0 0 0 0 0 0 0 0 0 0 0 0 0 0 0 0 0 0 0 0 0 0 0 0 0 0 0 0 0 0
0 0 0 0 0 0 0 0 0 0 0 0 0 0 0 0 0 0 0 0 0 0 0 0 0 0 0 0 0 0 0 0 0 0 0 0 0 0
0 0 0 0 0 0 0 0 0 0 0 0 0 0 0 0 0 0 0 0 0 0 0 0 0 0 0 0 0 0 0 0 0 0 0 0 0 0
0 0 0 0 0 0 0 0 0 0 0 0 0 0 0 0 0 0 0 0 0 0 0 0 0 0 0 0 0 0 0 0 0 0 0 0 0 0
0 0 0 0 0 0 0 0 0 0 0 0 0 0 0 0 0 0 0 0 0 0 0 0 0 0 0 0 0 0 0 0 0 0 0 0 0 0
0 0 0 0 0 0 0 0 0 0 0 0 0 0 0 0 0 0 0 0 0 0 0 0 0 0 0 0 0 0 0 0 0 0 0 0 0 0
0 0 0 0 0 0 0 0 0 0 0 0 0 0 0 0 0 0 0 0 0 0 0 0 0 0 0 0 0 0 0 0 0 0 0 0 0 0
0 0 0 0 0 0 0 0 0 0 0 0 0 0 0 0 0 0 0 0 0 0 0 0 0 0 0 0 0 0 0 0 0 0 0 0 0 0
0 0 0 0 0 0 0 0 0 0 0 0 0 0 0 0 0 0 0 0 0 0 0 0 0 0 0 0 0 0 0 0 0 0 0 0 0 0
0 0 0 0 0 0 0 0 0 0 0 0 0 0 0 0 0 0 0 0 0 0 0 0 0 0 0 0 0 0 0 0 0 0 0 0 0 0
0 0 0 0 0 0 0 0 0 0 0 0 0 0 0 0 0 0 0 0 0 0 0 0 0 0 0 0 0 0 0 0 0 0 0 0 0 0
0 0 0 0 0 0 0 0 0 0 0 0 0 0 0 0 0 0 0 0 0 0 0 0 0 0 0 0 0 0 0 0 0 0 0 0 0 0
0 0 0 0 0 0 0 0 0 0 0 0 0 0 0 0 0 0 0 0 0 0 0 0 0 0 0 0 0 0 0 0 0 0 0 0 0 0
0 0 0 0 0 0 0 0 0 0 0 0 0 0 0 0 0 0 0 0 0 0 0 0 0 0 0 0 0 0 0 0 0 0 0 0 0 0
0 0 0 0 0 0 0 0 0 0 0 0 0 0 0 0 0 0 0 0 0 0 0 0 0 0 0 0 0 0 0 0 0 0 0 0 0 0
0 0 0 0 0 0 0 0 0 0 0 0 0 0 0 0 0 0 0 0 0 0 0 0 0 0 0 0 0 0 0 0 0 0 0 0 0 0
0 0 0 0 0 0 0 0 0 0 0 0 0 0 0 0 0 0 0 0 0 0 0 0 0 0 0 0 0 0 0 0 0 0 0 0 0 0
0 0 0 0 0 0 0 0 0 0 0 0 0 0 0 0 0 0 0 0 0 0 0 0 0 0 0 0 0 0 0 0 0 0 0 0 0 0
0 0 0 0 0 0 0 0 0 0 0 0 0 0 0 0 0 0 0 0 0 0 0 0 0 0 0 0 0 0 0 0 0 0 0 0 0 0
0 0 0 0 0 0 0 0 0 0 0 0 0 0 0 0 0 0 0 0 0 0 0 0 0 0 0 0 0 0 0 0 0 0 0 0 0 0
Wind_Speed
2 2 1 1 1 0 1 2 2 1 1 1 1 1 1 1 2 2 2 4 5 5 5 5 5 5 5 5 5 5 5 4 4 3 3 4 4 4
2 2 2 2 1 1 1 1 1 2 1 1 1 1 1 1 2 2 2 4 4 4 5 4 4 4 5 5 5 5 4 4 3 3 3 3 4 4
3 2 3 2 2 1 0 0 1 1 2 1 1 0 1 1 2 1 2 2 2 4 4 4 4 4 4 4 4 4 3 2 2 3 3 3 4 4
3 3 3 2 2 1 1 0 0 1 2 2 1 0 1 1 0 1 1 1 1 2 2 2 3 3 3 3 3 2 2 1 1 2 2 3 3 3
3 3 3 3 3 2 1 0 1 1 2 2 1 0 0 0 1 1 1 1 1 0 1 1 1 2 2 2 2 2 2 1 1 2 2 2 3 3
3 2 2 2 2 2 1 1 2 2 2 2 1 1 0 1 1 1 1 1 1 1 2 1 1 1 0 1 1 1 1 1 1 2 2 2 3 3
3 3 3 3 4 2 1 1 2 2 2 2 1 1 1 1 1 0 1 1 2 1 1 1 1 1 1 1 2 3 3 3 3 3 3 3 3 4
3 4 4 4 5 4 4 3 3 3 3 2 2 2 1 1 1 1 1 1 1 1 1 1 0 1 2 2 4 5 5 5 5 5 4 4 4 4
2 3 3 4 4 3 4 5 4 3 3 4 3 3 2 2 2 1 1 1 1 2 1 1 1 1 2 3 6 7 7 7 7 7 7 6 6 6
2 2 2 3 4 3 4 4 4 3 2 2 2 2 2 2 2 2 2 1 1 1 1 0 1 2 2 2 5 7 8 8 8 8 8 8 8 8
3 2 2 3 4 5 4 4 4 3 3 3 1 1 1 2 3 2 2 2 1 2 0 1 1 2 2 3 4 6 7 8 9 9 9 9 9 8
3 3 3 3 3 4 3 3 3 2 3 3 3 3 1 1 2 3 3 2 1 2 2 1 1 0 2 3 3 3 3 6 9 9 10 10 9 5
2 2 2 3 4 3 1 1 1 1 1 1 2 2 2 1 1 2 3 3 3 3 3 3 1 1 1 3 3 3 3 3 3 5 8 11 11 7
1 2 3 5 5 5 2 2 2 1 1 1 2 2 2 2 2 2 3 4 5 6 4 4 3 3 2 2 4 3 3 3 3 4 4 7 8 10
1 3 5 6 5 3 3 3 2 1 1 1 1 2 2 2 2 2 3 2 3 4 5 5 5 3 3 3 3 3 3 4 3 3 4 4 4 3
2 4 6 5 3 3 3 3 1 1 1 1 2 2 2 2 2 1 1 2 2 4 4 4 5 5 3 4 4 5 4 4 4 4 4 4 4 4
2 2 3 3 3 3 2 2 2 1 1 1 1 2 2 2 2 1 1 1 1 3 4 4 2 3 5 4 3 5 5 5 5 4 3 4 6 5
1 2 2 2 2 2 2 2 1 1 2 2 2 2 2 2 3 2 1 1 2 3 3 3 2 3 3 4 7 6 5 5 5 4 3 3 6 6
0 2 3 3 3 2 2 2 2 2 2 2 2 2 2 2 2 2 2 2 3 3 4 3 1 1 2 5 7 5 5 4 3 4 4 4 5 6
2 3 3 4 3 3 3 2 2 2 2 2 2 2 2 2 2 3 3 3 3 3 4 3 3 3 4 5 5 5 5 5 3 4 5 4 5 7
3 4 4 4 4 3 3 3 3 3 3 2 2 3 3 2 3 3 3 4 3 3 4 5 6 6 3 1 3 5 5 5 6 4 3 3 4 4
5 5 5 4 4 4 3 3 3 3 3 3 3 3 3 3 4 4 4 3 3 4 5 5 5 2 1 2 4 5 6 6 5 7 8 7 4 4
5 5 5 4 4 4 4 4 4 4 4 4 4 4 3 3 4 4 4 4 4 4 4 4 3 2 2 3 4 4 6 6 4 4 6 9 10 12
Wind_Direction
3 358 348 322 311 240 190 180 175 210 286 284 305 331 346 16 22 17 15 39 43 44 46 53 60 65 73 75 78 87 96 107 119 129 149 165 177 183
354 3 353 333 335 332 212 217 186 178 210 247 256 273 325 22 28 17 15 34 36 43 47 52 58 64 68 74 79 84 94 102 112 125 137 159 165 161
356 4 350 345 346 330 334 137 159 158 174 242 258 277 338 5 0 8 15 17 20 47 54 56 55 58 63 68 71 75 85 107 123 133 139 150 163 175
357 1 349 357 352 340 341 214 180 177 160 175 226 287 286 257 345 8 5 9 3 52 69 69 66 62 59 60 64 70 79 96 123 156 168 175 173 171
1 5 349 2 355 355 1 71 123 112 128 143 169 306 313 328 47 26 19 358 330 47 81 84 75 83 85 81 75 74 79 97 132 163 177 183 188 193
5 0 350 4 4 14 33 84 116 108 108 118 124 87 34 7 76 63 22 8 350 6 35 43 52 49 134 152 154 156 162 174 183 201 212 220 220 222
5 1 7 17 19 24 76 121 125 119 120 124 118 92 65 73 96 165 86 7 353 357 23 352 5 357 320 273 248 234 230 228 226 227 229 231 235 237
3 356 1 10 9 23 47 71 115 136 142 141 139 153 189 178 154 135 121 75 340 320 69 332 37 288 275 256 246 238 237 236 235 235 236 240 242 241
7 0 3 6 4 23 42 49 54 75 124 150 154 184 184 192 153 113 117 130 217 253 107 313 315 283 267 255 246 243 243 242 242 242 244 246 247 248
10 9 18 9 13 34 57 55 43 37 52 115 159 190 190 186 159 150 147 96 327 314 135 229 299 285 287 281 264 247 246 247 247 247 249 251 252 252
4 16 40 38 30 51 66 58 38 19 33 55 68 155 200 198 167 117 92 79 9 317 285 171 271 298 302 289 279 261 251 251 252 251 250 250 250 253
2 6 23 32 33 47 73 74 48 358 9 16 18 17 11 268 201 174 164 145 167 275 259 175 250 302 315 293 283 278 264 260 256 254 252 252 252 247
1 347 338 352 358 6 49 95 240 296 360 13 359 352 349 327 278 213 188 174 182 230 226 170 209 210 212 288 299 276 251 256 259 256 254 256 253 232
341 320 318 330 332 333 341 320 321 359 39 26 14 338 316 297 285 269 236 220 219 229 227 178 196 201 196 260 282 290 282 254 240 254 261 267 263 247
299 304 317 325 326 323 319 327 353 52 58 33 315 285 266 267 294 312 309 280 263 252 240 214 206 211 191 217 251 264 286 285 256 249 259 255 254 247
341 325 325 328 335 314 321 341 356 190 187 223 254 277 302 314 302 287 299 323 332 309 289 242 216 201 219 234 232 257 255 261 273 262 258 263 257 241
336 348 356 351 347 339 331 316 315 324 265 255 252 278 292 298 292 287 274 299 279 285 301 308 279 222 221 222 248 259 262 264 262 263 261 275 273 258
14 332 321 312 296 292 296 304 301 268 250 244 243 246 259 269 284 292 267 249 264 272 277 285 313 341 336 284 227 241 260 261 269 266 239 255 278 277
242 278 280 278 275 268 249 246 259 260 243 234 243 256 261 268 271 281 284 279 274 273 273 271 259 223 286 292 289 232 226 259 269 275 258 237 255 270
237 258 268 265 260 253 245 242 254 266 259 256 256 258 258 259 269 272 270 262 265 273 286 285 254 227 225 247 269 282 244 229 247 264 272 269 266 277
266 261 256 254 250 241 237 236 239 247 253 250 254 256 254 249 258 263 268 275 267 268 275 275 266 262 242 251 292 290 285 255 224 231 254 273 288 299
256 259 257 247 242 238 236 236 240 247 252 247 253 257 256 245 253 264 267 268 265 262 266 273 286 300 230 238 263 276 289 300 288 264 243 220 218 246
249 248 248 248 241 234 230 230 230 239 243 241 246 252 253 255 257 258 262 263 266 271 277 286 297 291 263 250 263 276 286 291 295 304 290 271 254 256